Theta_e
347 347 347 346 347 345 346 347 350 350 351 355 352 353 351 347 349 353 354 355 350 352 354 355 359 352 358 358 359 357 357 355 352 346 347 354 349 344 337 336 338 336 336
348 348 348 350 349 350 350 351 352 352 353 353 351 351 353 355 353 355 355 353 352 353 356 358 360 355 359 357 358 357 357 356 355 348 341 351 353 344 344 338 338 337 336
349 351 350 350 351 354 354 353 353 355 353 351 349 351 354 352 351 350 347 354 354 352 356 359 359 358 360 356 357 357 360 358 351 347 345 346 347 338 341 342 339 336 336
350 351 350 351 351 355 356 356 356 357 356 353 352 350 349 348 347 349 355 353 352 351 354 358 358 358 361 358 360 360 360 357 353 340 337 344 341 345 343 337 343 341 334
349 350 349 351 350 351 354 360 358 359 358 356 353 354 350 351 346 346 354 345 355 350 355 357 358 361 360 358 361 360 357 356 350 344 340 334 332 337 336 336 335 340 338
349 350 349 351 350 350 352 356 362 361 359 360 352 355 354 345 350 348 352 350 354 354 355 358 355 362 361 362 362 359 359 356 350 335 335 328 327 325 327 329 329 328 331
351 350 353 353 352 350 350 355 363 365 363 364 361 355 355 354 351 352 349 350 352 358 362 356 356 358 358 362 362 361 359 354 345 332 329 329 323 324 324 325 327 328 326
353 350 350 352 352 351 351 352 364 366 365 363 362 362 359 354 350 350 349 352 351 359 359 356 355 357 359 361 362 362 356 349 344 334 324 329 324 324 324 325 328 330 329
353 353 350 348 350 350 351 351 363 365 365 365 364 363 361 356 353 347 346 344 354 354 357 355 355 356 358 362 361 360 355 350 343 336 328 327 324 326 323 325 326 329 332
352 354 354 351 348 349 349 350 357 363 365 365 365 363 363 359 352 355 351 349 349 350 355 360 356 357 357 360 363 360 354 350 343 336 330 324 321 322 326 329 328 328 328
351 353 354 353 351 349 348 349 351 361 364 365 365 363 363 362 359 352 351 348 352 352 357 358 358 358 358 359 364 362 356 351 345 335 328 327 322 330 329 330 328 327 327
354 349 352 353 353 352 349 348 350 354 362 364 364 363 363 362 363 361 356 350 351 353 355 357 358 359 359 357 364 363 355 351 347 335 329 325 329 332 328 328 328 329 327
366 366 368 352 352 354 352 350 351 352 360 362 363 364 364 364 363 363 362 356 353 355 357 356 356 358 360 358 359 362 358 351 344 334 328 324 332 331 330 329 330 328 328
364 363 369 371 352 353 357 354 353 352 357 362 364 365 365 365 365 365 365 362 359 355 355 354 358 358 359 358 358 362 358 351 340 332 325 328 331 331 329 327 328 328 327
357 358 359 361 366 364 367 357 356 354 355 360 364 365 366 366 367 366 366 365 363 361 357 356 355 357 358 357 359 363 356 348 338 329 324 330 322 322 321 320 321 326 326
352 353 353 355 358 364 365 365 361 360 361 363 364 365 365 365 365 366 365 365 364 364 362 359 356 356 356 352 355 361 355 346 337 323 327 318 318 318 319 322 320 320 323
346 347 348 349 352 354 359 360 360 363 362 360 364 363 365 366 366 366 365 365 365 365 364 363 359 354 354 353 360 361 354 345 338 324 323 323 321 318 325 324 323 321 321
343 344 344 345 347 351 352 352 356 359 363 364 363 363 364 365 365 366 366 365 366 366 366 365 362 356 354 356 360 358 353 345 338 325 321 327 323 324 328 327 325 321 321
340 341 343 343 346 348 349 350 354 358 361 363 366 364 364 363 364 366 367 367 367 367 367 366 364 358 357 357 360 358 352 344 335 327 325 329 327 325 325 326 327 325 323
339 340 342 344 345 345 348 352 354 358 364 364 363 365 365 364 366 366 367 367 367 368 367 364 363 360 359 358 360 358 353 341 333 327 326 328 327 326 323 326 327 327 325
338 338 343 344 343 343 345 350 352 351 353 359 363 366 364 366 366 365 366 367 367 367 366 363 361 360 361 362 359 358 354 345 334 328 328 325 326 324 319 327 328 327 325
337 337 337 342 340 341 342 345 347 345 349 355 360 362 364 365 365 365 367 367 367 369 368 362 361 360 361 361 360 360 357 346 340 331 327 325 323 320 316 324 319 316 322
336 335 336 339 337 339 339 340 339 341 347 353 362 361 361 363 367 368 365 366 368 366 365 364 364 362 361 361 360 359 356 342 338 331 328 325 321 315 315 318 313 318 321
335 335 335 336 336 337 336 335 338 341 346 351 352 352 354 359 363 363 361 363 364 366 364 362 362 361 359 361 359 356 355 342 334 331 328 323 318 312 313 315 313 317 322
331 334 334 334 335 335 337 336 336 339 342 345 350 350 351 352 352 352 351 353 349 347 352 353 353 353 359 358 358 355 353 339 333 329 324 319 314 314 318 319 316 319 322
330 330 330 332 333 334 333 332 333 336 339 344 345 347 347 350 352 351 351 347 342 341 342 342 342 345 347 352 355 356 353 341 332 327 321 318 316 318 320 324 323 320 321
Wind_Speed
16 21 21 24 23 21 19 17 16 18 14 10 10 8 12 7 7 6 6 4 3 5 11 12 15 17 14 6 9 12 16 19 9 10 12 10 7 6 9 7 9 7 6
18 19 22 24 24 23 20 19 17 18 15 13 13 8 5 3 2 9 3 1 0 4 4 9 12 14 11 12 13 12 14 17 12 6 10 2 8 6 6 6 7 7 7
19 17 18 22 25 27 25 21 19 19 17 15 11 5 4 4 3 4 7 5 3 3 2 5 8 12 14 15 12 13 11 14 15 10 6 3 4 11 2 8 8 4 7
18 18 18 21 22 27 26 26 21 21 18 15 13 11 10 10 11 13 10 4 1 2 3 3 6 10 10 12 9 11 12 11 15 15 15 3 2 1 4 5 6 6 7
20 20 19 23 24 24 27 26 26 21 19 19 14 12 12 11 7 7 2 1 5 5 2 3 4 5 9 9 8 9 11 12 11 12 13 15 16 7 5 4 7 7 15
20 20 26 27 23 25 25 27 27 24 22 21 19 15 13 13 8 9 4 9 15 11 6 1 4 3 8 8 8 8 7 9 10 11 16 14 10 12 11 4 9 12 7
19 18 20 22 25 24 25 26 30 25 24 21 20 20 16 10 9 5 6 12 7 10 10 4 4 4 7 6 8 7 6 8 10 10 9 11 10 10 12 10 9 7 21
20 19 20 23 26 25 26 25 32 28 25 23 22 20 18 17 15 11 14 11 10 7 10 4 1 4 5 6 5 4 5 6 7 10 9 10 7 10 12 12 10 4 8
19 21 19 25 27 27 27 27 29 30 28 25 23 22 20 20 17 15 15 12 7 3 5 3 0 2 7 6 7 3 3 4 5 4 7 8 8 9 8 10 11 9 4
17 20 19 25 28 30 29 29 28 31 30 26 25 24 22 21 22 14 12 11 11 12 5 2 3 3 6 3 4 4 2 4 5 5 7 8 8 9 10 9 14 16 13
10 18 19 28 30 30 29 29 28 30 28 26 25 24 23 21 19 20 16 17 12 8 6 7 6 6 5 8 2 1 2 3 2 4 6 6 8 9 8 10 10 11 11
17 12 14 26 31 30 31 30 29 28 30 28 25 26 24 22 22 21 20 18 18 14 11 10 10 8 6 7 4 2 4 2 1 3 4 5 7 10 11 13 14 11 7
21 19 20 10 2 25 29 29 31 29 30 29 27 25 24 24 24 22 21 19 18 17 15 14 13 10 8 8 8 2 5 2 2 2 2 4 6 8 9 10 11 14 16
14 17 16 14 8 24 16 27 27 27 28 29 26 24 25 24 23 19 17 17 17 17 16 16 13 13 10 9 10 6 6 6 5 4 3 5 4 4 6 10 13 15 18
15 15 15 16 17 11 14 15 20 22 24 27 25 25 23 22 20 19 18 17 16 17 17 17 16 14 12 12 13 12 9 9 8 4 5 4 6 8 11 14 16 16 18
16 16 15 15 18 22 20 19 10 5 6 20 23 21 21 20 21 20 19 19 19 19 17 18 17 16 16 15 16 17 13 11 11 11 7 7 9 12 15 17 20 19 19
12 14 14 17 17 17 17 15 19 17 5 6 9 16 16 18 18 20 20 21 21 20 20 18 17 18 17 14 13 15 12 13 12 13 7 12 10 11 12 13 17 19 19
10 10 14 18 18 18 19 16 15 15 13 10 9 10 14 15 17 18 21 22 21 20 18 18 18 17 17 16 17 16 15 14 11 13 11 8 14 8 6 9 7 11 15
9 11 12 15 15 14 14 14 13 12 13 16 13 14 13 14 17 19 19 20 18 18 18 17 17 19 18 18 21 19 16 14 12 14 13 11 12 11 9 7 5 6 5
10 13 13 12 13 12 11 12 9 15 12 13 16 15 15 15 18 18 18 18 19 18 16 17 17 19 20 19 23 21 18 16 14 14 15 12 12 11 12 9 4 12 5
10 16 13 11 10 10 12 14 7 11 16 12 10 8 16 15 15 13 15 17 17 17 18 14 15 17 19 20 24 24 18 18 17 17 17 17 15 11 13 7 6 8 8
8 13 16 11 16 16 14 16 11 13 13 13 13 10 3 8 12 16 13 15 17 17 13 14 16 18 20 23 21 25 21 21 18 19 17 16 18 14 13 9 7 6 8
5 10 12 13 14 16 15 12 15 14 13 16 5 8 4 6 6 7 11 12 12 11 11 15 16 16 19 19 20 23 25 19 20 20 17 18 17 17 14 9 7 8 7
9 9 10 9 12 13 17 16 17 13 15 12 12 11 8 3 3 2 7 7 7 8 13 15 12 13 17 19 18 26 30 19 20 16 18 20 19 20 15 11 10 8 5
18 11 9 12 12 13 13 19 20 16 15 14 10 7 7 6 5 5 6 5 2 3 1 4 5 6 19 23 21 25 34 30 26 21 22 24 23 21 15 13 10 8 5
9 15 14 12 12 14 16 20 20 19 17 15 15 14 8 10 9 5 4 6 6 8 8 10 9 9 11 17 16 21 29 33 29 26 24 22 23 21 19 17 17 14 13
Wind_Direction
169 168 171 148 148 158 166 166 168 161 175 164 186 223 202 216 249 153 106 56 0 352 343 360 6 8 14 9 15 357 348 343 32 13 339 178 160 148 133 129 128 119 157
171 168 171 158 159 159 168 171 174 170 182 195 213 222 272 60 54 95 132 164 162 328 40 16 358 355 356 32 24 14 355 348 5 39 351 8 184 112 117 132 145 141 176
172 167 178 171 166 163 169 180 182 178 194 193 207 231 261 311 328 282 253 203 177 291 13 21 5 352 18 26 24 13 9 340 21 53 69 3 21 326 60 172 159 137 121
171 168 177 177 180 167 172 179 185 186 197 214 197 199 205 232 223 240 136 182 160 265 282 42 14 357 27 29 19 7 14 20 15 21 22 38 245 231 324 5 184 203 176
174 172 180 182 187 182 175 177 182 190 197 202 206 192 227 252 260 258 125 99 199 218 186 48 20 22 20 27 25 25 25 33 28 20 360 14 16 14 358 335 347 262 183
171 169 176 178 194 186 183 178 179 191 201 198 210 208 210 231 276 247 192 241 227 199 171 99 22 55 30 10 20 31 30 40 25 30 23 29 32 15 2 349 343 342 352
167 169 170 176 185 196 189 181 176 185 198 199 203 214 214 214 250 272 230 272 274 160 143 124 43 360 12 23 32 23 35 29 40 36 23 27 32 18 10 357 350 325 338
165 170 171 175 183 196 191 193 174 179 192 203 205 206 212 213 218 226 233 246 271 165 137 135 53 340 20 7 24 30 43 42 36 38 44 9 37 25 15 356 355 333 339
176 167 176 176 184 192 194 192 175 178 187 198 203 207 207 206 212 217 229 246 270 272 172 148 242 321 338 19 6 13 59 47 42 79 4 19 26 13 24 15 11 345 351
193 170 174 179 183 189 197 194 184 181 185 193 199 203 206 213 213 216 222 222 236 245 217 216 275 296 314 323 343 17 16 58 50 19 20 29 28 20 31 35 24 31 13
243 173 179 178 183 188 195 198 194 180 183 191 199 200 204 209 217 219 221 228 233 239 221 238 261 276 296 327 325 11 318 84 46 53 45 32 21 28 21 47 42 36 22
320 10 200 186 184 187 188 191 192 188 184 191 202 202 203 204 211 216 220 222 225 231 234 235 249 261 278 298 299 284 194 132 189 47 55 30 37 47 40 39 36 24 360
3 16 40 268 215 190 184 186 185 188 183 186 196 203 203 206 212 215 215 218 219 223 225 227 233 244 256 275 290 190 251 134 148 145 88 65 56 50 45 40 30 20 355
16 11 13 17 32 310 210 173 179 186 182 183 189 202 204 208 212 216 217 218 221 224 226 231 230 229 235 256 266 185 223 157 154 178 110 86 100 60 45 52 40 27 19
10 2 6 6 19 82 335 153 176 187 184 183 185 197 209 211 212 214 217 219 222 227 227 232 233 231 230 242 238 201 195 169 165 160 127 141 97 74 70 65 57 55 42
8 1 353 356 3 7 19 15 21 16 34 181 184 193 202 211 216 214 216 217 221 223 222 226 230 232 233 243 242 212 184 169 171 167 159 122 114 97 82 70 66 65 59
2 355 348 347 345 354 11 4 349 358 296 287 204 200 203 209 215 216 215 219 218 219 220 222 224 231 237 253 200 185 187 179 179 177 172 148 138 116 97 90 71 70 67
13 352 347 338 333 336 353 355 339 334 327 261 244 237 213 215 218 218 220 222 221 219 217 219 219 228 232 235 200 181 187 177 184 181 172 178 145 139 130 114 94 79 69
4 349 335 326 318 324 337 333 320 306 288 270 235 224 231 224 228 221 224 224 221 221 219 219 216 220 228 232 196 177 181 181 184 183 174 188 160 173 148 131 120 128 77
355 340 324 336 2 337 320 317 317 325 329 243 255 224 215 219 225 223 221 219 219 220 221 223 223 220 224 221 203 186 172 180 182 183 183 191 176 184 163 130 149 121 133
358 4 5 15 11 345 343 332 5 339 334 333 321 293 218 221 222 224 221 215 216 218 221 216 222 225 228 227 207 192 183 198 178 187 190 190 185 186 171 151 124 140 144
14 9 7 35 18 15 4 358 9 343 336 329 304 294 282 212 228 222 225 211 209 213 213 216 221 223 222 233 224 203 191 206 185 186 188 194 191 184 172 164 157 175 192
32 21 18 19 24 16 22 7 343 340 339 340 296 277 257 231 243 227 220 211 203 198 217 217 214 225 208 221 228 209 199 183 183 189 193 188 186 178 177 174 173 194 219
352 51 16 29 20 13 17 12 7 354 339 328 357 8 12 328 245 307 235 210 205 210 224 227 205 207 199 217 217 200 201 185 188 182 185 185 179 180 181 186 190 211 284
356 2 21 19 17 14 19 18 12 9 360 356 326 287 283 299 355 32 28 50 34 49 312 251 239 243 192 218 234 206 194 186 187 179 175 171 171 172 177 196 204 203 233
356 4 4 11 13 34 24 11 11 10 8 355 348 347 306 241 255 248 259 294 281 286 276 259 236 247 250 241 225 218 202 191 186 179 177 175 178 178 186 192 203 217 200